Weather History for Yoho Park, BC

Change the Weather History Date:

Monday, April 14, 2014

  Actual Average Record
Temperature  
Mean Temperature 34 °F -  
Max Temperature 50 °F - - ()
Min Temperature 19 °F - - ()
Degree Days  
Heating Degree Days 30    
Moisture  
Dew Point 18 °F    
Average Humidity 54    
Maximum Humidity 78    
Minimum Humidity 18    
Precipitation  
Precipitation 0.46 in - - ()
Sea Level Pressure  
Sea Level Pressure 30.11 in    
Wind  
Wind Speed 9 mph ()    
Max Wind Speed 18 mph    
Max Gust Speed 22 mph    
T = Trace of Precipitation, MM = Missing Value Source: Averaged Metar Reports

Daily Weather History Graph

Daily Weather History Graph

Search for Another Location

Airport:

Trip Planner

Search our weather history database for the weather conditions in past years. The results will help you decide how hot, cold, wet, or windy it might be!

Date:

Astronomy

Apr. 14, 2014 Rise Set
Actual Time 6:51 AM MDT 8:40 PM MDT
Civil Twilight 6:16 AM MDT 9:16 PM MDT
Nautical Twilight 5:32 AM MDT 9:59 PM MDT
Astronomical Twilight 4:44 AM MDT 10:49 PM MDT
Moon 8:23 PM MDT (4/14) 6:31 AM MDT (4/14)
Length of Visible Light 14h 59m
Length of Day
13h 48m
Full, 100% of the Moon is Illuminated
Apr 14
Full
Apr 15
Full
Apr 22
Last Quarter
Apr 29
New
May 6
First Quarter

Hourly Weather History & Observations

Time (MDT) Temp. Windchill Dew Point Humidity Pressure Visibility Wind Dir Wind Speed Gust Speed Precip Events Conditions
12:00 AM 27 °F - 20 °F 65% 30.27 in - WSW 1.2 mph - -  
12:00 AM 27.3 °F - 19.9 °F 74% 30.27 in - WSW 1.2 mph - N/A   Unknown
1:00 AM 26.8 °F 17.7 °F 18.0 °F 69% 30.26 in - SW 9.2 mph - N/A   Unknown
2:00 AM 26.8 °F 17.1 °F 19.0 °F 73% 30.23 in - WSW 10.4 mph - N/A   Unknown
3:00 AM 25.7 °F 15.1 °F 17.2 °F 70% 30.25 in - WSW 11.5 mph - N/A   Unknown
4:00 AM 24.8 °F 14.6 °F 14.9 °F 66% 30.23 in - SW 10.4 mph - N/A   Unknown
5:00 AM 23.4 °F 12.2 °F 13.8 °F 67% 30.22 in - WSW 11.5 mph - N/A   Unknown
6:00 AM 22 °F - 13 °F 58% 30.22 in - WSW 9.2 mph - -  
6:00 AM 21.7 °F 11.5 °F 13.3 °F 70% 30.22 in - WSW 9.2 mph - N/A   Unknown
7:00 AM 21.7 °F 10.8 °F 12.6 °F 68% 30.24 in - WSW 10.4 mph - N/A   Unknown
8:00 AM 23.4 °F 11.1 °F 15.3 °F 71% 30.25 in - WSW 13.8 mph - N/A   Unknown
9:00 AM 29.3 °F 18.2 °F 16.0 °F 58% 30.22 in - WSW 15.0 mph - N/A   Unknown
10:00 AM 31.6 °F 20.4 °F 14.9 °F 50% 30.19 in - WSW 17.3 mph - N/A   Unknown
11:00 AM 36.5 °F 26.3 °F 14.9 °F 41% 30.16 in - WSW 18.4 mph - N/A   Unknown
12:00 PM 42 °F - 13 °F 18% 30.13 in - West 17.3 mph - -  
12:00 PM 41.9 °F 33.7 °F 12.9 °F 31% 30.13 in - West 17.3 mph - N/A   Unknown
1:00 PM 47.1 °F - 14.5 °F 27% 30.09 in - West 17.3 mph - N/A   Unknown
2:00 PM 45.9 °F 39.4 °F 12.2 °F 26% 30.06 in - WSW 15.0 mph 21.9 mph N/A   Unknown
3:00 PM 45.7 °F 38.8 °F 13.6 °F 28% 30.03 in - West 16.1 mph 21.9 mph N/A   Unknown
4:00 PM 46.9 °F - 12.6 °F 25% 29.99 in - WSW 13.8 mph 20.7 mph N/A   Unknown
5:00 PM 48.4 °F - 18.3 °F 30% 29.95 in - WSW 15.0 mph 20.7 mph N/A   Unknown
6:00 PM 41 °F - 23 °F 36% 29.97 in - West 16.1 mph - -  
6:00 PM 41.2 °F 33.0 °F 23.2 °F 49% 29.97 in - West 16.1 mph 21.9 mph N/A   Unknown
7:00 PM 40.3 °F 33.4 °F 22.1 °F 48% 29.96 in - WSW 11.5 mph 17.3 mph N/A   Unknown
8:00 PM 34.7 °F 27.5 °F 25.9 °F 70% 29.94 in - WSW 9.2 mph - N/A   Unknown
9:00 PM 34.9 °F 28.3 °F 26.4 °F 71% 29.91 in - West 8.1 mph - N/A   Unknown
10:00 PM 33.4 °F 26.6 °F 26.6 °F 76% 29.89 in - WSW 8.1 mph - N/A   Unknown
11:00 PM 31.6 °F 23.7 °F 25.5 °F 78% 29.86 in - West 9.2 mph - N/A   Unknown